Waukegan, IL

7:54 PM CDT on July 25, 2017 (GMT -0500)
Waukegan Regional

Weather History for KUGN - November, 2012

Change the Weather History Date:

Saturday, November 3, 2012

  Actual Average Record
Temperature  
Mean Temperature 38 °F -  
Max Temperature 44 °F 53 °F 72 °F (2008)
Min Temperature 31 °F 37 °F 20 °F (2006)
Degree Days  
Heating Degree Days 27 20  
Month to date heating degree days 77 58  
Since 1 July heating degree days 728 664  
Cooling Degree Days 0 0  
Month to date cooling degree days 0 0  
Year to date cooling degree days 983 564  
Moisture  
Dew Point 31 °F    
Average Humidity 81    
Maximum Humidity 92    
Minimum Humidity 70    
Precipitation  
Precipitation T in 0.11 in 0.60 in (2003)
Month to date precipitation T 0.32  
Year to date precipitation 23.00 31.15  
Sea Level Pressure  
Sea Level Pressure 30.21 in    
Wind  
Wind Speed 5 mph (NNW)    
Max Wind Speed 12 mph    
Max Gust Speed 15 mph    
Visibility 10 miles    
Events Rain    
T = Trace of Precipitation, MM = Missing Value Source: NWS Daily Summary

Daily Weather History Graph

Daily Weather History Graph

Search for Another Location

Airport or City:

Trip Planner

Search our weather history database for the weather conditions in past years. The results will help you decide how hot, cold, wet, or windy it might be!

Date:

Astronomy

Nov. 03, 2012 Rise Set
Actual Time 7:28 AM CDT 5:41 PM CDT
Civil Twilight 6:58 AM CDT 6:10 PM CDT
Nautical Twilight 6:25 AM CDT 6:44 PM CDT
Astronomical Twilight 5:52 AM CDT 7:16 PM CDT
Moon 9:20 PM CDT (11/3) 11:34 AM CDT (11/3)
Length of Visible Light 11h 12m
Length of Day
10h 13m
Waning Gibbous, 80% of the Moon is Illuminated
Nov 3
Waning Gibbous
Nov 6
Last Quarter
Nov 13
New
Nov 20
First Quarter
Nov 28
Full

Hourly Weather History & Observations

Time (CDT) Temp. Windchill Dew Point Humidity Pressure Visibility Wind Dir Wind Speed Gust Speed Precip Events Conditions
12:52 AM 33.1 °F - 28.9 °F 85% 30.19 in 10.0 mi Calm Calm - N/A   Partly Cloudy
1:52 AM 33.1 °F 28.7 °F 28.9 °F 85% 30.20 in 10.0 mi NW 4.6 mph - N/A   Mostly Cloudy
2:52 AM 33.1 °F 30.0 °F 28.9 °F 85% 30.19 in 10.0 mi NNW 3.5 mph - N/A   Mostly Cloudy
3:52 AM 34.0 °F 29.8 °F 28.9 °F 82% 30.18 in 10.0 mi NNW 4.6 mph - N/A   Mostly Cloudy
4:21 AM 33.8 °F - 28.4 °F 81% 30.15 in 10.0 mi Calm Calm - N/A   Mostly Cloudy
4:52 AM 35.1 °F 32.2 °F 30.0 °F 82% 30.17 in 10.0 mi NNW 3.5 mph - N/A   Overcast
5:52 AM 35.1 °F - 30.9 °F 85% 30.19 in 10.0 mi Calm Calm - N/A   Scattered Clouds
6:28 AM 39.2 °F 35.9 °F 30.2 °F 70% 30.17 in 10.0 mi NNE 4.6 mph - N/A   Mostly Cloudy
6:40 AM 35.6 °F 32.8 °F 30.2 °F 81% 30.17 in 10.0 mi WNW 3.5 mph - N/A   Overcast
6:52 AM 36.0 °F - 30.9 °F 82% 30.20 in 10.0 mi Calm Calm - N/A   Overcast
7:39 AM 35.6 °F 31.7 °F 30.2 °F 81% 30.18 in 10.0 mi NW 4.6 mph - N/A   Overcast
7:52 AM 36.0 °F 32.1 °F 30.9 °F 82% 30.22 in 8.0 mi NW 4.6 mph - N/A   Overcast
8:52 AM 37.0 °F 34.5 °F 32.0 °F 82% 30.24 in 10.0 mi NNW 3.5 mph - N/A   Overcast
9:06 AM 37.4 °F 34.9 °F 32.0 °F 81% 30.21 in 10.0 mi NNW 3.5 mph - N/A   Overcast
9:52 AM 39.0 °F 36.8 °F 32.0 °F 76% 30.24 in 10.0 mi NNW 3.5 mph - N/A   Overcast
10:52 AM 41.0 °F 35.8 °F 32.0 °F 70% 30.25 in 7.0 mi North 8.1 mph - N/A   Overcast
11:30 AM 42.8 °F 38.6 °F 33.8 °F 70% 30.22 in 8.0 mi North 6.9 mph - N/A   Overcast
11:52 AM 42.1 °F 37.7 °F 34.0 °F 73% 30.25 in 10.0 mi North 6.9 mph - N/A   Overcast
11:59 AM 42.8 °F 37.5 °F 33.8 °F 70% 30.22 in 10.0 mi North 9.2 mph - 0.00 in Rain Light Rain
12:52 PM 43.0 °F 38.2 °F 33.1 °F 68% 30.22 in 10.0 mi NNE 8.1 mph - 0.00 in   Overcast
1:52 PM 42.1 °F 37.1 °F 34.0 °F 73% 30.22 in 10.0 mi NNE 8.1 mph - N/A   Overcast
2:52 PM 42.1 °F 36.6 °F 34.0 °F 73% 30.20 in 10.0 mi North 9.2 mph - N/A   Overcast
3:52 PM 41.0 °F 37.1 °F 34.0 °F 76% 30.22 in 10.0 mi Variable 5.8 mph - N/A   Overcast
4:27 PM 42.8 °F 38.0 °F 33.8 °F 70% 30.19 in 10.0 mi NNE 8.1 mph - N/A   Overcast
4:52 PM 42.1 °F 37.1 °F 33.1 °F 70% 30.21 in 10.0 mi NNE 8.1 mph - N/A   Overcast
5:52 PM 39.9 °F 35.8 °F 33.1 °F 77% 30.21 in 10.0 mi North 5.8 mph - N/A   Overcast
6:52 PM 37.9 °F 35.5 °F 32.0 °F 79% 30.23 in 10.0 mi NNW 3.5 mph - N/A   Partly Cloudy
7:52 PM 32.0 °F 28.7 °F 28.9 °F 88% 30.24 in 6.0 mi WNW 3.5 mph - N/A   Clear
8:52 PM 30.9 °F 27.5 °F 28.9 °F 92% 30.24 in 8.0 mi NNW 3.5 mph - N/A   Mostly Cloudy
9:52 PM 34.0 °F 29.8 °F 30.0 °F 85% 30.24 in 10.0 mi NW 4.6 mph - N/A   Clear
10:52 PM 34.0 °F 28.8 °F 28.9 °F 82% 30.23 in 10.0 mi NW 5.8 mph - N/A   Partly Cloudy
11:52 PM 33.1 °F 28.7 °F 28.0 °F 82% 30.23 in 10.0 mi NW 4.6 mph - N/A   Clear